Terminal Aerodrome Forecast
Issued by NWS

Home | Current Version | Previous Version | Text Only | Print | Product List | Glossary On
Versions: 1 2 3 4 5 6 7 8 9 10 11 12 13 14 15 16 17 18
000
FTUS45 KFGZ 251100
TAFGCN
TAF
KGCN 251120Z 2512/2612 VRB06KT 6SM FU BKN120 BKN200
     FM251800 24012KT P6SM BKN080
      TEMPO 2519/2523 -TSRA BKN070CB
     FM260200 VRB05KT P6SM SCT100 BKN200=

USA.gov is the U.S. government's official web portal to all federal, state and local government web resources and services.